Simultaneous Nadir Overpasses (SNOs) Predictions

Prediction of SNOs between AQUA and NOAA-19 Satellite Orbit:

Table of predicted SNOs for the next 14.0 days since TLE Epoch: 6/6/2020
Index Date (AQUA) Time (AQUA) Lat,Lon (AQUA) SZA (AQUA ) Date (NOAA-19) Time (NOAA-19) Lat,Lon (NOAA-19) SZA (NOAA-19 ) Distance(km) Time Diff (sec)
1 06/06/2020 15:08:23 79.74, -75.64 58.28 06/06/2020 15:07:42 79.76, -75.71 58.32 1.88 41
2 06/06/2020 15:57:51 -79.79, 91.61 121.65 06/06/2020 15:58:41 -79.77, 91.71 121.70 3.23 50
3 06/08/2020 20:42:07 -79.74, 20.99 121.93 06/08/2020 20:41:00 -79.74, 20.88 121.88 2.21 67
4 06/08/2020 21:31:34 79.76,-171.54 58.11 06/08/2020 21:31:59 79.78,-171.45 58.11 2.90 25
5 06/11/2020 03:05:18 -79.75, -74.90 122.06 06/11/2020 03:05:18 -79.75, -74.98 122.05 1.75 0
6 06/13/2020 08:39:02 79.76, 21.59 57.83 06/13/2020 08:38:35 79.75, 21.74 57.82 3.11 27
7 06/13/2020 09:28:29 -79.76,-170.81 122.16 06/13/2020 09:29:36 -79.76,-170.87 122.19 1.31 67
8 06/15/2020 14:12:46 -79.75, 118.24 122.27 06/15/2020 14:11:55 -79.73, 118.25 122.27 2.40 51
9 06/15/2020 15:02:12 79.74, -74.07 57.72 06/15/2020 15:02:52 79.76, -74.05 57.72 2.66 40
10 06/17/2020 19:46:23 79.51,-143.44 57.31 06/17/2020 19:45:20 79.46,-147.74 57.72 87.32 63
11 06/17/2020 20:35:55 -79.73, 22.57 122.35 06/17/2020 20:36:11 -79.76, 22.62 122.34 3.09 16
12 06/20/2020 02:09:39 79.75, 118.97 57.67 06/20/2020 02:09:27 79.73, 119.05 57.64 3.37 12




NCC Satellite Simultaneous Nadir Overpasses (SNOs) Prediction Service
